This demonstration page uses our WeatherBlox Daily Observations layout. Learn more.

Left ArrowRight Arrow

40.92945, -100.16068

Hourly Observations for February 1, 2016

Temp ( °F °C ) Dew Point ( °F °C ) Humidity (%) Winds ( mph kmh ) Pressure ( in mb ) Visibility ( mi km ) Precip ( " mm )
12:15 am 00:15 Partly Cloudy 27 -2.6 23 -5 84 84 N 5 7 30.09 1019 10 16.0934 N/A
12:35 am 00:35 Clear 27 -2.6 22 -5.4 81 81 NNE 3 6 30.09 1019 10 16.0934 N/A
12:55 am 00:55 Clear 26 -3.4 22 -5.8 84 84 NNE 5 7 30.09 1019 10 16.0934 N/A
1:15 am 01:15 Clear 27 -3 22 -5.7 82 82 NE 3 6 30.09 1019 10 16.0934 N/A
1:35 am 01:35 Clear 27 -3 22 -5.5 83 83 ENE 5 7 30.03 1017 10 16.0934 N/A
1:55 am 01:55 Partly Cloudy 26 -3.5 23 -5.2 88 88 N N/A 30.03 1017 10 16.0934 N/A
2:15 am 02:15 Partly Cloudy 26 -3.3 22 -5.5 85 85 N N/A 30.09 1019 10 16.0934 N/A
2:35 am 02:35 Partly Cloudy 24 -4.4 21 -6.3 87 87 N N/A 30.06 1018 10 16.0934 N/A
2:55 am 02:55 Cloudy 26 -3.3 23 -5 88 88 N N/A 30.03 1017 10 16.0934 N/A
3:15 am 03:15 Cloudy 27 -2.6 24 -4.5 87 87 N N/A 30.03 1017 10 16.0934 N/A
3:35 am 03:35 Cloudy 27 -2.6 24 -4.5 87 87 N N/A 30.03 1017 10 16.0934 N/A
3:55 am 03:55 Cloudy 28 -2.2 24 -4.4 85 85 N N/A 30.03 1017 10 16.0934 N/A
4:15 am 04:15 Cloudy 28 -2.2 24 -4.5 84 84 N N/A 30.03 1017 10 16.0934 N/A
4:35 am 04:35 Cloudy 28 -2.3 24 -4.3 86 86 N N/A 30.03 1017 10 16.0934 N/A
4:55 am 04:55 Cloudy 28 -2.2 25 -4 88 88 N N/A 30.03 1017 10 16.0934 N/A
5:15 am 05:15 Cloudy 28 -2.1 25 -3.8 88 88 N N/A 30.03 1017 10 16.0934 N/A
5:35 am 05:35 Cloudy 29 -1.8 25 -3.8 86 86 N N/A 30.03 1017 10 16.0934 N/A
5:55 am 05:55 Cloudy 29 -1.8 25 -3.8 86 86 N N/A 30.03 1017 10 16.0934 N/A
6:15 am 06:15 Cloudy 29 -1.6 26 -3.6 86 86 N N/A 30.03 1017 10 16.0934 N/A
6:35 am 06:35 Cloudy 30 -1.3 26 -3.5 85 85 N N/A 30.06 1018 10 16.0934 N/A
6:55 am 06:55 Cloudy 31 -0.6 25 -3.7 80 80 N N/A 30.06 1018 10 16.0934 N/A
7:15 am 07:15 Cloudy 31 -0.7 26 -3.4 82 82 N N/A 30.06 1018 10 16.0934 N/A
7:35 am 07:35 Cloudy 31 -0.6 26 -3.3 82 82 N N/A 30.06 1018 10 16.0934 N/A
7:55 am 07:55 Cloudy 31 -0.7 27 -3 85 85 N N/A 30.06 1018 10 16.0934 N/A
8:15 am 08:15 Cloudy 31 -0.6 27 -2.7 86 86 N N/A 30.06 1018 10 16.0934 N/A
8:55 am 08:55 Cloudy 32 undefined 27 -2.7 82 82 NNE 5 7 30.06 1018 10 16.0934 N/A
9:15 am 09:15 Cloudy 32 0.2 27 -2.7 81 81 ENE 5 7 30.06 1018 10 16.0934 N/A
9:35 am 09:35 Cloudy 34 1 28 -2.4 78 78 ENE 5 7 30.03 1017 10 16.0934 N/A
9:55 am 09:55 Cloudy 35 1.5 26 -3.1 72 72 E 7 11 30.03 1017 10 16.0934 N/A
10:15 am 10:15 Cloudy 35 1.7 26 -3.6 68 68 ESE 6 9 30.06 1018 10 16.0934 N/A
10:35 am 10:35 Cloudy 36 2.4 26 -3.1 67 67 SE 7 11 30.06 1018 10 16.0934 N/A
10:55 am 10:55 Cloudy 37 2.5 27 -2.6 69 69 SE 9 15 30.06 1018 10 16.0934 N/A
11:15 am 11:15 Cloudy 37 2.5 27 -2.6 69 69 SSE 10 17 30.06 1018 10 16.0934 N/A
11:35 am 11:35 Cloudy with Light Snow 35 1.7 29 -1.4 80 80 SSE 13 20 30.06 1018 5 8.0467 N/A
11:55 am 11:55 Cloudy 34 1.2 31 -0.8 87 87 SSE 13 20 30.03 1017 7 11.26538 N/A
12:15 pm 12:15 Cloudy with Light Snow 33 0.7 31 -0.7 90 90 SE 14 22 30.03 1017 1.5 2.41401 N/A
12:35 pm 12:35 Cloudy with Light Snow 33 0.7 31 -0.5 92 92 SE 12 19 30.03 1017 1.25 2.011675 N/A
12:55 pm 12:55 Cloudy with Light Snow 34 1.1 31 -0.5 89 89 SE 15 24 30 1016 1.25 2.011675 N/A
1:15 pm 13:15 Cloudy with Light Snow 34 1 31 -0.3 91 91 SE 13 20 30 1016 2.5 4.02335 N/A
1:35 pm 13:35 Cloudy with Light Snow 34 1 31 -0.5 90 90 ESE 12 19 30 1016 2.5 4.02335 N/A
1:55 pm 13:55 Cloudy with Light Snow 33 0.8 31 -0.5 91 91 ESE 15 24 29.97 1015 1.5 2.41401 N/A
2:15 pm 14:15 Cloudy with Light Snow 33 0.8 31 -0.3 92 92 ESE 10 17 29.97 1015 1 1.60934 N/A
2:35 pm 14:35 Cloudy with Light Snow 33 0.8 32 -0.2 93 93 ESE 15 24 29.94 1014 0.5 0.80467 N/A
2:55 pm 14:55 Cloudy with Light Snow 33 0.8 32 -0.2 93 93 ESE 13 20 29.94 1014 0.75 1.207005 N/A
3:15 pm 15:15 Cloudy with Light Snow 33 0.7 31 -0.3 93 93 ESE 8 13 29.94 1014 2 3.21868 N/A
3:35 pm 15:35 Cloudy with Light Snow 33 0.5 31 -0.5 93 93 ESE 14 22 29.91 1013 2 3.21868 N/A
3:55 pm 15:55 Cloudy with Light Snow 33 0.6 31 -0.5 92 92 E 15 24 29.91 1013 2.5 4.02335 N/A
4:15 pm 16:15 Cloudy with Light Snow 33 0.5 31 -0.5 93 93 E 15 24 29.91 1013 3 4.82802 0.01 0.254
4:35 pm 16:35 Cloudy with Light Snow 33 0.5 31 -0.6 92 92 E 17 28 29.91 1013 4 6.43736 0.01 0.254
4:55 pm 16:55 Cloudy with Light Snow 33 0.5 31 -0.7 92 92 E 15 24 29.91 1013 1.75 2.816345 0.01 0.254
5:15 pm 17:15 Cloudy with Light Snow 33 0.5 31 -0.6 92 92 E 16 26 29.91 1013 1.75 2.816345 N/A
5:35 pm 17:35 Cloudy with Snow 33 0.3 31 -0.6 94 94 E 18 30 29.91 1013 0.5 0.80467 N/A
5:55 pm 17:55 Sunny 37 3 24 -4.5 58 58 WNW 8 13 29.94 1014 10 16.0934 N/A
6:15 pm 18:15 Cloudy with Snow 32 0.2 31 -0.7 94 94 E 17 28 29.91 1013 0.5 0.80467 N/A
6:35 pm 18:35 Cloudy with Light Snow 32 0.2 31 -0.8 93 93 E 16 26 29.91 1013 2 3.21868 0.01 0.254
6:55 pm 18:55 Cloudy with Light Snow 32 0.2 31 -0.8 93 93 E 17 28 29.91 1013 2 3.21868 0.01 0.254
7:15 pm 19:15 Cloudy with Light Snow 32 0.2 31 -0.7 94 94 E 15 24 29.91 1013 1.5 2.41401 N/A
7:35 pm 19:35 Cloudy with Light Snow 32 0.2 31 -0.7 94 94 E 16 26 29.91 1013 1.75 2.816345 0.01 0.254
7:55 pm 19:55 Cloudy with Light Snow 32 0.2 31 -0.7 94 94 E 15 24 29.91 1013 2 3.21868 0.01 0.254
8:15 pm 20:15 Cloudy with Light Snow 32 0.2 31 -0.7 94 94 E 14 22 29.94 1014 1.75 2.816345 0.01 0.254
8:35 pm 20:35 Cloudy with Snow 32 0.2 31 -0.7 94 94 E 15 24 29.94 1014 1 1.60934 0.02 0.508
8:55 pm 20:55 Cloudy with Light Snow 32 0.2 31 -0.7 94 94 E 16 26 29.91 1013 2.5 4.02335 0.03 0.762
9:15 pm 21:15 Cloudy with Light Snow 32 0.2 31 -0.7 94 94 ENE 17 28 29.91 1013 2 3.21868 N/A
9:35 pm 21:35 Cloudy with Light Snow 32 0.1 31 -0.8 94 94 ENE 16 26 29.91 1013 1.75 2.816345 N/A
9:55 pm 21:55 Windy with Snow Likely 32 0.1 31 -0.8 94 94 ENE 20 31 29.91 1013 1.5 2.41401 0.01 0.254
10:15 pm 22:15 Cloudy with Snow 32 0.2 31 -0.8 93 93 ENE 18 30 29.91 1013 1 1.60934 N/A
10:35 pm 22:35 Windy with Snow Likely 32 0.2 31 -0.8 93 93 ENE 20 31 29.91 1013 1.5 2.41401 0.01 0.254
10:55 pm 22:55 Cloudy with Snow 32 0.1 31 -0.8 94 94 ENE 15 24 29.91 1013 1 1.60934 0.01 0.254
11:15 pm 23:15 Cloudy with Snow 32 0.1 31 -0.8 94 94 ENE 15 24 29.91 1013 0.75 1.207005 0.01 0.254
11:35 pm 23:35 Cloudy with Snow 32 0.1 31 -0.7 94 94 ENE 18 30 29.88 1012 0.75 1.207005 0.01 0.254
11:55 pm 23:55 Cloudy with Light Snow 32 0.1 31 -0.7 94 94 NE 18 30 29.85 1011 1.25 2.011675 0.02 0.508

Powered by AerisWeather